COSMOS 1508

导读

COSMOS 1508(宇宙1508)是独联体(CIS)继承自苏联航天项目的一颗军用卫星,1983年11月11日发射入轨,属于苏联/俄罗斯规模最大的“宇宙号”卫星系列。该系列多为军用任务卫星,主要承担空间侦察、技术试验等战略任务,体现冷战时期苏联航天军事应用能力,目前该卫星已完成使命,脱离轨道再入大气层销毁。

基本信息
目录编号:
14483
目录名称:
COSMOS 1508
国际标识:
1983-111A
轨道中心:
EARTH
卫星名称:
COSMOS 1508
卫星全名:
--
卫星状态:
在轨 (已飞行15638 天)
发射日期:
1983-11-11 UTC
国别 :
俄罗斯(独联体) (CIS)
星等 :
--
轨道信息
数据来源 国际轨道数据
星历时间: 2026-09-04T04:37:26+0800
7小时前
查看轨道信息
半长轴: 7243.625km
偏心率: 0.0670162
轨道倾角: 82.888°
近地点辐角 226.556°
升交点赤经 187.090°
平近点角 127.798°
近地点: 380.047km
远地点: 1350.929km
周期: 102.257分钟
每日圈数: 14.082148
详细信息
使用方式:
暂无
2D轨道图
3D轨道图
轨道高度分析图
轨道倾角分析图
轨道综合分析图
查看轨道综合分析图
交会数据列表
事件ID 空间交会对象 最接近时刻(TCA) 交会距离 交会风险概率(CRP) 交会风险指数(CRI) 操作
CDM_260905-124501-448305-534221
2026-09-05T
12:45:21+0000
1.132 km
极远距离
1.678214E-5 中风险 0.59
CDM_260903-024901-448306-468825
2026-09-03T
02:49:33+0000
2.004 km
极远距离
2.781593E-6 低风险 0.44
CDM_260905-112401-448306-674923
PIAST-S1 (66749)
2026-09-05T
11:24:17+0000
2.161 km
极远距离
2.31124E-6 低风险 0.42
CDM_260906-022401-448306-286021
2026-09-06T
02:24:19+0000
2.380 km
极远距离
1.891119E-6 低风险 0.41
CDM_260906-045301-448305-516121
2026-09-06T
04:53:32+0000
2.568 km
极远距离
1.638827E-6 低风险 0.39
CDM_260906-174401-448304-603521
2026-09-06T
17:44:11+0000
2.729 km
极远距离
1.492994E-6 低风险 0.38
CDM_260904-080601-448306-931721
2026-09-04T
08:06:11+0000
2.999 km
极远距离
1.108078E-6 低风险 0.36